| time (UTC) | temp F | wind direction | speed knots | gust knots | rain 1hr in | rain 24hr in | rain mn in | humidity % | barometer mb |
| 20260507051828 | 54 | 60 | 4.3 | 6.1 | 0.00 | 0.00 | 0.00 | 82 | 1021.9 |
| 20260507051326 | 54 | 195 | 1.7 | 5.2 | 0.00 | 0.00 | 0.00 | 82 | 1022.0 |
| 20260507050822 | 55 | 50 | 1.7 | 5.2 | 0.00 | 0.00 | 0.00 | 81 | 1022.1 |
| 20260507050319 | 55 | 30 | 2.6 | 5.2 | 0.00 | 0.00 | 0.00 | 81 | 1022.1 |
| 20260507045816 | 55 | 22 | 4.3 | 7.0 | 0.00 | 0.00 | 0.00 | 80 | 1022.2 |
| 20260507045312 | 55 | 90 | 3.5 | 6.1 | 0.00 | 0.00 | 0.00 | 80 | 1022.2 |
| 20260507044809 | 56 | 104 | 1.7 | 5.2 | 0.00 | 0.00 | 0.00 | 80 | 1022.1 |
| 20260507044306 | 56 | 40 | 2.6 | 5.2 | 0.00 | 0.00 | 0.00 | 79 | 1022.1 |
| 20260507043802 | 56 | 47 | 2.6 | 7.0 | 0.00 | 0.00 | 0.00 | 79 | 1022.1 |
| 20260507043259 | 56 | 17 | 3.5 | 7.0 | 0.00 | 0.00 | 0.00 | 78 | 1021.8 |
| 20260507042755 | 57 | 35 | 2.6 | 6.1 | 0.00 | 0.00 | 0.00 | 78 | 1022.0 |
| 20260507042250 | 57 | 72 | 2.6 | 4.3 | 0.00 | 0.00 | 0.00 | 77 | 1021.9 |
| 20260507041748 | 57 | 37 | 3.5 | 7.8 | 0.00 | 0.00 | 0.00 | 77 | 1021.9 |
| 20260507041244 | 57 | 19 | 5.2 | 8.7 | 0.00 | 0.00 | 0.00 | 76 | 1021.9 |
| 20260507040741 | 57 | 30 | 3.5 | 8.7 | 0.00 | 0.00 | 0.00 | 76 | 1021.9 |
| 20260507040237 | 58 | 66 | 4.3 | 6.1 | 0.00 | 0.00 | 0.00 | 76 | 1022.1 |
| 20260507035733 | 58 | 38 | 4.3 | 7.0 | 0.00 | 0.00 | 0.00 | 76 | 1021.7 |
| 20260507035229 | 58 | 123 | 1.7 | 5.2 | 0.00 | 0.00 | 0.00 | 76 | 1021.8 |
| 20260507034727 | 58 | 86 | 3.5 | 6.1 | 0.00 | 0.00 | 0.00 | 75 | 1021.6 |
| 20260507034223 | 58 | 92 | 5.2 | 7.0 | 0.00 | 0.00 | 0.00 | 75 | 1021.8 |
| 20260507033722 | 58 | 98 | 1.7 | 7.8 | 0.00 | 0.00 | 0.00 | 75 | 1021.5 |
| 20260507033219 | 59 | 40 | 1.7 | 11.3 | 0.00 | 0.00 | 0.00 | 74 | 1021.7 |
| 20260507032716 | 59 | 104 | 3.5 | 7.8 | 0.00 | 0.00 | 0.00 | 74 | 1021.5 |
| 20260507032212 | 59 | 57 | 3.5 | 7.0 | 0.00 | 0.00 | 0.00 | 74 | 1021.3 |
| 20260507031709 | 59 | 82 | 0.9 | 4.3 | 0.00 | 0.00 | 0.00 | 73 | 1021.4 |
| 20260507031206 | 60 | 81 | 2.6 | 7.8 | 0.00 | 0.00 | 0.00 | 73 | 1021.3 |
| 20260507030703 | 60 | 47 | 2.6 | 6.1 | 0.00 | 0.00 | 0.00 | 73 | 1021.3 |
| 20260507030200 | 60 | 31 | 2.6 | 7.8 | 0.00 | 0.00 | 0.00 | 73 | 1021.0 |
| 20260507025657 | 61 | 136 | 2.6 | 6.1 | 0.00 | 0.00 | 0.00 | 73 | 1021.1 |
| 20260507025154 | 61 | 13 | 2.6 | 9.6 | 0.00 | 0.00 | 0.00 | 72 | 1021.0 |
| 20260507024652 | 62 | 51 | 2.6 | 6.1 | 0.00 | 0.00 | 0.00 | 73 | 1020.9 |
| 20260507024149 | 62 | 96 | 0.9 | 5.2 | 0.00 | 0.00 | 0.00 | 73 | 1020.8 |
| 20260507023644 | 62 | 97 | 1.7 | 7.0 | 0.00 | 0.00 | 0.00 | 73 | 1021.0 |
| 20260507023142 | 62 | 83 | 2.6 | 4.3 | 0.00 | 0.00 | 0.00 | 73 | 1020.6 |
| 20260507022639 | 62 | 117 | 0.9 | 2.6 | 0.00 | 0.00 | 0.00 | 75 | 1020.5 |
| 20260507022135 | 62 | 103 | 0.9 | 2.6 | 0.00 | 0.00 | 0.00 | 76 | 1020.7 |
| 20260507021631 | 62 | 128 | 0.9 | 5.2 | 0.00 | 0.00 | 0.00 | 76 | 1020.6 |
| 20260507021126 | 63 | 85 | 2.6 | 4.3 | 0.00 | 0.00 | 0.00 | 75 | 1020.6 |
| 20260507020625 | 64 | 78 | 1.7 | 2.6 | 0.00 | 0.00 | 0.00 | 74 | 1020.4 |
| 20260507020121 | 64 | 127 | 2.6 | 4.3 | 0.00 | 0.00 | 0.00 | 72 | 1020.8 |
| 20260507015620 | 65 | 130 | 1.7 | 5.2 | 0.00 | 0.00 | 0.00 | 70 | 1020.8 |
| 20260507015116 | 66 | 128 | 0.9 | 4.3 | 0.00 | 0.00 | 0.00 | 68 | 1020.6 |
| 20260507014613 | 66 | 85 | 3.5 | 5.2 | 0.00 | 0.00 | 0.00 | 68 | 1020.7 |
| 20260507014109 | 66 | 88 | 2.6 | 5.2 | 0.00 | 0.00 | 0.00 | 71 | 1020.6 |
| 20260507013606 | 66 | 46 | 0.9 | 7.0 | 0.00 | 0.00 | 0.00 | 68 | 1020.7 |
| 20260507013103 | 67 | 64 | 1.7 | 2.6 | 0.00 | 0.00 | 0.00 | 66 | 1020.7 |
| 20260507012600 | 67 | 41 | 1.7 | 5.2 | 0.00 | 0.00 | 0.00 | 66 | 1020.5 |
| 20260507012055 | 66 | 146 | 2.6 | 4.3 | 0.00 | 0.00 | 0.00 | 68 | 1020.7 |
| 20260507011554 | 66 | 59 | 2.6 | 5.2 | 0.00 | 0.00 | 0.00 | 68 | 1020.8 |
| 20260507011050 | 67 | 31 | 2.6 | 5.2 | 0.00 | 0.00 | 0.00 | 68 | 1020.7 |
| 20260507010544 | 67 | 63 | 3.5 | 6.1 | 0.00 | 0.00 | 0.00 | 68 | 1020.8 |
| 20260507010041 | 67 | 111 | 0.9 | 1.7 | 0.00 | 0.00 | 0.00 | 70 | 1020.6 |
| 20260507005539 | 67 | 108 | 0.9 | 4.3 | 0.00 | 0.00 | 0.00 | 70 | 1020.6 |
| 20260507005034 | 67 | 30 | 2.6 | 4.3 | 0.00 | 0.00 | 0.00 | 69 | 1020.7 |
| 20260507004532 | 67 | 83 | 2.6 | 4.3 | 0.00 | 0.00 | 0.00 | 72 | 1020.4 |
| 20260507004029 | 68 | 157 | 0.9 | 2.6 | 0.00 | 0.00 | 0.00 | 70 | 1020.5 |
| 20260507003525 | 67 | 8 | 3.5 | 5.2 | 0.00 | 0.00 | 0.00 | 70 | 1020.5 |
| 20260507003020 | 67 | 103 | 2.6 | 4.3 | 0.00 | 0.00 | 0.00 | 72 | 1020.6 |
| 20260507002517 | 67 | 129 | 2.6 | 2.6 | 0.00 | 0.00 | 0.00 | 71 | 1020.4 |
| 20260507002013 | 68 | 72 | 2.6 | 5.2 | 0.00 | 0.00 | 0.00 | 71 | 1020.4 |
| 20260507001509 | 68 | 125 | 1.7 | 2.6 | 0.00 | 0.00 | 0.00 | 70 | 1020.6 |
| 20260507001007 | 68 | 39 | 3.5 | 6.1 | 0.00 | 0.00 | 0.00 | 71 | 1020.3 |
| 20260507000503 | 67 | 48 | 1.7 | 2.6 | 0.00 | 0.00 | 0.00 | 71 | 1020.3 |
| 20260506235958 | 68 | 115 | 2.6 | 6.1 | 0.00 | 0.00 | 0.00 | 72 | 1020.5 |
| 20260506235456 | 67 | 117 | 0.9 | 2.6 | 0.00 | 0.00 | 0.00 | 72 | 1020.5 |
| 20260506234952 | 67 | 121 | 2.6 | 6.1 | 0.00 | 0.00 | 0.00 | 72 | 1020.5 |
| 20260506234449 | 67 | 149 | 0.9 | 2.6 | 0.00 | 0.00 | 0.00 | 73 | 1020.6 |
| 20260506233947 | 67 | 63 | 2.6 | 4.3 | 0.00 | 0.00 | 0.00 | 72 | 1020.6 |
| 20260506233443 | 67 | 101 | 2.6 | 6.1 | 0.00 | 0.00 | 0.00 | 73 | 1020.4 |
| 20260506232940 | 68 | 93 | 4.3 | 7.0 | 0.00 | 0.00 | 0.00 | 71 | 1020.4 |
| 20260506232436 | 69 | 106 | 2.6 | 7.0 | 0.00 | 0.00 | 0.00 | 67 | 1020.4 |
| 20260506231932 | 70 | 50 | 2.6 | 5.2 | 0.00 | 0.00 | 0.00 | 67 | 1020.5 |
| 20260506231429 | 70 | 137 | 0.9 | 4.3 | 0.00 | 0.00 | 0.00 | 67 | 1020.2 |
| 20260506230926 | 70 | 59 | 2.6 | 4.3 | 0.00 | 0.00 | 0.00 | 66 | 1020.4 |
| 20260506230423 | 69 | 87 | 1.7 | 4.3 | 0.00 | 0.00 | 0.00 | 69 | 1020.3 |
| 20260506225919 | 71 | 152 | 0.0 | 2.6 | 0.00 | 0.00 | 0.00 | 66 | 1020.3 |
| 20260506225417 | 69 | 31 | 1.7 | 5.2 | 0.00 | 0.00 | 0.00 | 69 | 1020.4 |
| 20260506224914 | 69 | 55 | 3.5 | 4.3 | 0.00 | 0.00 | 0.00 | 69 | 1020.4 |
| 20260506224411 | 68 | 78 | 3.5 | 5.2 | 0.00 | 0.00 | 0.00 | 69 | 1020.7 |
| 20260506223907 | 68 | 113 | 0.9 | 2.6 | 0.00 | 0.00 | 0.00 | 68 | 1020.6 |
| 20260506223403 | 69 | 83 | 1.7 | 2.6 | 0.00 | 0.00 | 0.00 | 68 | 1020.8 |
| 20260506222900 | 69 | 122 | 1.7 | 1.7 | 0.00 | 0.00 | 0.00 | 66 | 1020.7 |
| 20260506222356 | 69 | 149 | 0.9 | 2.6 | 0.00 | 0.00 | 0.00 | 66 | 1020.6 |
| 20260506221854 | 69 | 96 | 1.7 | 4.3 | 0.00 | 0.00 | 0.00 | 66 | 1020.8 |
| 20260506221351 | 69 | 192 | 2.6 | 4.3 | 0.00 | 0.00 | 0.00 | 65 | 1020.7 |
| 20260506220848 | 69 | 129 | 1.7 | 2.6 | 0.00 | 0.00 | 0.00 | 67 | 1020.9 |
| 20260506220343 | 70 | 134 | 0.0 | 0.9 | 0.00 | 0.00 | 0.00 | 65 | 1020.8 |
| 20260506215840 | 70 | 168 | 0.9 | 1.7 | 0.00 | 0.00 | 0.00 | 65 | 1020.7 |
| 20260506215336 | 70 | 5 | 1.7 | 1.7 | 0.00 | 0.00 | 0.00 | 64 | 1020.6 |
| 20260506214827 | 70 | 157 | 0.9 | 1.7 | 0.00 | 0.00 | 0.00 | 62 | 1020.6 |
| 20260506214323 | 71 | 196 | 2.6 | 5.2 | 0.00 | 0.00 | 0.00 | 61 | 1020.7 |
| 20260506213822 | 72 | 149 | 0.0 | 0.9 | 0.00 | 0.00 | 0.00 | 60 | 1020.7 |
| 20260506213319 | 71 | 182 | 1.7 | 4.3 | 0.00 | 0.00 | 0.00 | 62 | 1020.7 |
| 20260506212816 | 70 | 201 | 1.7 | 4.3 | 0.00 | 0.00 | 0.00 | 63 | 1020.9 |
| 20260506212312 | 70 | 235 | 3.5 | 4.3 | 0.00 | 0.00 | 0.00 | 63 | 1020.7 |
| 20260506211807 | 71 | 152 | 3.5 | 4.3 | 0.00 | 0.00 | 0.00 | 61 | 1020.7 |
| 20260506211303 | 72 | 150 | 1.7 | 2.6 | 0.00 | 0.00 | 0.00 | 62 | 1020.7 |
| 20260506210800 | 69 | 329 | 3.5 | 5.2 | 0.00 | 0.00 | 0.00 | 64 | 1020.6 |
| 20260506210257 | 71 | 187 | 4.3 | 5.2 | 0.00 | 0.00 | 0.00 | 64 | 1020.8 |
| 20260506205754 | 70 | 159 | 0.0 | 1.7 | 0.00 | 0.00 | 0.00 | 66 | 1020.7 |
| 20260506205249 | 69 | 173 | 2.6 | 4.3 | 0.00 | 0.00 | 0.00 | 66 | 1020.9 |
| 20260506204746 | 69 | 162 | 3.5 | 8.7 | 0.00 | 0.00 | 0.00 | 69 | 1020.9 |
| 20260506204244 | 68 | 150 | 0.9 | 2.6 | 0.00 | 0.00 | 0.00 | 68 | 1020.9 |
| 20260506203742 | 67 | 141 | 0.9 | 2.6 | 0.00 | 0.00 | 0.00 | 70 | 1020.9 |
| 20260506203239 | 68 | 181 | 2.6 | 2.6 | 0.00 | 0.00 | 0.00 | 69 | 1021.0 |
| 20260506202736 | 68 | 158 | 0.0 | 0.9 | 0.00 | 0.00 | 0.00 | 68 | 1021.0 |
| 20260506202232 | 68 | 112 | 0.9 | 2.6 | 0.00 | 0.00 | 0.00 | 70 | 1021.1 |
| 20260506201729 | 67 | 124 | 0.9 | 1.7 | 0.00 | 0.00 | 0.00 | 70 | 1020.8 |
| 20260506201226 | 68 | 130 | 0.0 | 2.6 | 0.00 | 0.00 | 0.00 | 68 | 1020.8 |
| 20260506200723 | 68 | 193 | 1.7 | 2.6 | 0.00 | 0.00 | 0.00 | 72 | 1020.8 |
| 20260506200220 | 67 | 174 | 1.7 | 4.3 | 0.00 | 0.00 | 0.00 | 71 | 1021.1 |
| 20260506195716 | 66 | 100 | 2.6 | 2.6 | 0.00 | 0.00 | 0.00 | 71 | 1021.0 |
| 20260506195213 | 67 | 149 | 0.0 | 7.8 | 0.00 | 0.00 | 0.00 | 71 | 1021.1 |
| 20260506194710 | 67 | 163 | 1.7 | 4.3 | 0.00 | 0.00 | 0.00 | 69 | 1021.2 |
| 20260506194207 | 68 | 167 | 0.9 | 2.6 | 0.00 | 0.00 | 0.00 | 68 | 1021.2 |
| 20260506193705 | 68 | 120 | 4.3 | 5.2 | 0.00 | 0.00 | 0.00 | 70 | 1021.3 |
| 20260506193202 | 69 | 170 | 1.7 | 4.3 | 0.00 | 0.00 | 0.00 | 66 | 1021.1 |
| 20260506192658 | 68 | 199 | 0.9 | 1.7 | 0.00 | 0.00 | 0.00 | 69 | 1021.2 |
| 20260506192154 | 67 | 186 | 2.6 | 6.1 | 0.00 | 0.00 | 0.00 | 68 | 1021.2 |
| 20260506191652 | 67 | 181 | 0.9 | 5.2 | 0.00 | 0.00 | 0.00 | 71 | 1021.1 |
| 20260506191148 | 65 | 130 | 2.6 | 2.6 | 0.00 | 0.00 | 0.00 | 72 | 1021.5 |
| 20260506190645 | 67 | 122 | 0.9 | 1.7 | 0.00 | 0.00 | 0.00 | 71 | 1021.4 |
| 20260506190141 | 66 | 200 | 3.5 | 4.3 | 0.00 | 0.00 | 0.00 | 71 | 1021.5 |
| 20260506185639 | 64 | 183 | 1.7 | 2.6 | 0.00 | 0.00 | 0.00 | 74 | 1021.3 |
| 20260506185135 | 64 | 184 | 1.7 | 5.2 | 0.00 | 0.00 | 0.00 | 75 | 1021.3 |
| 20260506184632 | 63 | 172 | 2.6 | 7.0 | 0.00 | 0.00 | 0.00 | 76 | 1021.3 |
| 20260506184130 | 63 | 138 | 0.9 | 4.3 | 0.00 | 0.00 | 0.00 | 76 | 1021.4 |
| 20260506183626 | 64 | 103 | 2.6 | 4.3 | 0.00 | 0.00 | 0.00 | 75 | 1021.2 |
| 20260506183122 | 63 | 139 | 0.0 | 1.7 | 0.00 | 0.00 | 0.00 | 76 | 1021.3 |
| 20260506182620 | 62 | 125 | 0.9 | 2.6 | 0.00 | 0.00 | 0.00 | 77 | 1021.5 |
| 20260506182116 | 63 | 143 | 1.7 | 5.2 | 0.00 | 0.00 | 0.00 | 77 | 1021.3 |
| 20260506181614 | 63 | 167 | 1.7 | 2.6 | 0.00 | 0.00 | 0.00 | 77 | 1021.4 |
| 20260506181111 | 63 | 97 | 2.6 | 6.1 | 0.00 | 0.00 | 0.00 | 78 | 1021.0 |
| 20260506180608 | 62 | 160 | 2.6 | 2.6 | 0.00 | 0.00 | 0.00 | 77 | 1021.0 |
| 20260506180105 | 61 | 127 | 1.7 | 4.3 | 0.00 | 0.00 | 0.00 | 80 | 1021.2 |
| 20260506175601 | 62 | 112 | 1.7 | 4.3 | 0.00 | 0.00 | 0.00 | 78 | 1021.3 |
| 20260506175057 | 62 | 151 | 0.0 | 0.9 | 0.00 | 0.00 | 0.00 | 79 | 1021.2 |
| 20260506174556 | 61 | 151 | 0.0 | 1.7 | 0.00 | 0.00 | 0.00 | 80 | 1021.5 |
| 20260506174052 | 60 | 180 | 2.6 | 2.6 | 0.00 | 0.00 | 0.00 | 80 | 1021.2 |
| 20260506173550 | 61 | 239 | 1.7 | 2.6 | 0.00 | 0.00 | 0.00 | 78 | 1021.5 |
| 20260506173046 | 61 | 160 | 0.9 | 2.6 | 0.00 | 0.00 | 0.00 | 79 | 1021.3 |
| 20260506172544 | 60 | 127 | 0.0 | 0.9 | 0.00 | 0.00 | 0.00 | 81 | 1021.3 |
| 20260506172040 | 60 | 101 | 1.7 | 1.7 | 0.00 | 0.00 | 0.00 | 81 | 1021.1 |
| 20260506171537 | 61 | 113 | 0.9 | 0.9 | 0.00 | 0.00 | 0.00 | 78 | 1021.0 |
| 20260506171034 | 61 | 155 | 0.9 | 1.7 | 0.00 | 0.00 | 0.00 | 79 | 1021.3 |
| 20260506170532 | 60 | 205 | 0.9 | 1.7 | 0.00 | 0.00 | 0.00 | 79 | 1021.2 |
| 20260506170024 | 60 | 181 | 3.5 | 5.2 | 0.00 | 0.00 | 0.00 | 78 | 1021.0 |
| 20260506165522 | 60 | 97 | 0.9 | 4.3 | 0.00 | 0.00 | 0.00 | 80 | 1021.1 |
| 20260506165018 | 60 | 151 | 1.7 | 5.2 | 0.00 | 0.00 | 0.00 | 79 | 1021.1 |
| 20260506164515 | 60 | 134 | 0.0 | 0.0 | 0.00 | 0.00 | 0.00 | 78 | 1021.2 |
| 20260506164012 | 59 | 160 | 0.0 | 2.6 | 0.00 | 0.00 | 0.00 | 80 | 1021.1 |
| 20260506163508 | 60 | 169 | 1.7 | 1.7 | 0.00 | 0.00 | 0.00 | 79 | 1021.2 |
| 20260506163004 | 59 | 176 | 0.9 | 1.7 | 0.00 | 0.00 | 0.00 | 80 | 1021.4 |
| 20260506162500 | 60 | 159 | 0.0 | 1.7 | 0.00 | 0.00 | 0.00 | 79 | 1021.5 |
| 20260506161951 | 60 | 144 | 1.7 | 1.7 | 0.00 | 0.00 | 0.00 | 78 | 1021.4 |
| 20260506161449 | 59 | 186 | 0.9 | 1.7 | 0.00 | 0.00 | 0.00 | 81 | 1021.3 |
| 20260506160947 | 59 | 69 | 0.9 | 1.7 | 0.00 | 0.00 | 0.00 | 81 | 1021.1 |
| 20260506160444 | 58 | 152 | 0.9 | 2.6 | 0.00 | 0.00 | 0.00 | 81 | 1021.1 |
| 20260506155941 | 58 | 145 | 0.9 | 0.9 | 0.00 | 0.00 | 0.00 | 81 | 1021.1 |
| 20260506155438 | 58 | 10 | 2.6 | 5.2 | 0.00 | 0.00 | 0.00 | 81 | 1021.3 |
| 20260506153605 | 58 | 148 | 0.0 | 1.7 | 0.00 | 0.00 | 0.00 | 81 | 1020.6 |
| 20260506153103 | 57 | 148 | 0.0 | 0.9 | 0.00 | 0.00 | 0.00 | 83 | 1021.0 |
| 20260506152559 | 57 | 139 | 0.9 | 1.7 | 0.00 | 0.00 | 0.00 | 83 | 1021.0 |
| 20260506152057 | 57 | 98 | 0.9 | 2.6 | 0.00 | 0.00 | 0.00 | 84 | 1020.5 |
| 20260506151555 | 57 | 64 | 2.6 | 4.3 | 0.00 | 0.00 | 0.00 | 83 | 1020.7 |
| 20260506151052 | 57 | 144 | 0.0 | 1.7 | 0.00 | 0.00 | 0.00 | 85 | 1020.6 |
| 20260506150549 | 57 | 139 | 0.9 | 1.7 | 0.00 | 0.00 | 0.00 | 85 | 1020.6 |
| 20260506150045 | 56 | 46 | 2.6 | 2.6 | 0.00 | 0.00 | 0.00 | 85 | 1021.0 |
| 20260506145542 | 56 | 55 | 0.0 | 0.9 | 0.00 | 0.00 | 0.00 | 85 | 1021.1 |
| 20260506145040 | 56 | 164 | 0.9 | 4.3 | 0.00 | 0.00 | 0.00 | 86 | 1021.3 |
| 20260506144536 | 56 | 80 | 1.7 | 1.7 | 0.00 | 0.00 | 0.00 | 86 | 1021.1 |
| 20260506144034 | 56 | 344 | 1.7 | 2.6 | 0.00 | 0.00 | 0.00 | 86 | 1021.0 |
| 20260506143531 | 56 | 91 | 1.7 | 2.6 | 0.00 | 0.00 | 0.00 | 87 | 1021.0 |
| 20260506143029 | 56 | 121 | 0.9 | 5.2 | 0.00 | 0.00 | 0.00 | 87 | 1021.1 |
| 20260506142527 | 56 | 140 | 0.9 | 2.6 | 0.00 | 0.00 | 0.00 | 87 | 1021.1 |
| 20260506142025 | 56 | 45 | 2.6 | 5.2 | 0.00 | 0.00 | 0.00 | 87 | 1020.9 |
| 20260506141523 | 56 | 328 | 3.5 | 5.2 | 0.00 | 0.00 | 0.00 | 87 | 1020.9 |
| 20260506141021 | 56 | 84 | 0.9 | 2.6 | 0.00 | 0.00 | 0.00 | 87 | 1020.7 |
| 20260506140518 | 56 | 343 | 1.7 | 6.1 | 0.00 | 0.00 | 0.00 | 87 | 1020.5 |
| 20260506140015 | 56 | 334 | 3.5 | 6.1 | 0.00 | 0.00 | 0.00 | 87 | 1020.4 |
| 20260506135512 | 56 | 65 | 0.9 | 4.3 | 0.00 | 0.00 | 0.00 | 87 | 1020.2 |
| 20260506135008 | 56 | 48 | 1.7 | 2.6 | 0.00 | 0.00 | 0.00 | 87 | 1020.1 |
| 20260506134504 | 56 | 53 | 1.7 | 2.6 | 0.00 | 0.00 | 0.00 | 87 | 1020.3 |
| 20260506134000 | 56 | 21 | 2.6 | 4.3 | 0.00 | 0.00 | 0.00 | 87 | 1020.2 |
| 20260506133458 | 56 | 76 | 1.7 | 2.6 | 0.00 | 0.00 | 0.00 | 88 | 1020.2 |
| 20260506132954 | 56 | 145 | 0.9 | 1.7 | 0.00 | 0.00 | 0.00 | 88 | 1020.4 |
| 20260506132451 | 55 | 119 | 0.9 | 1.7 | 0.00 | 0.00 | 0.00 | 89 | 1020.3 |
| 20260506131949 | 55 | 147 | 0.0 | 0.9 | 0.00 | 0.00 | 0.00 | 89 | 1020.3 |
| 20260506131445 | 55 | 93 | 1.7 | 2.6 | 0.00 | 0.00 | 0.00 | 89 | 1020.1 |
| 20260506130942 | 55 | 195 | 0.9 | 2.6 | 0.00 | 0.00 | 0.00 | 89 | 1020.1 |
| 20260506130439 | 55 | 58 | 1.7 | 1.7 | 0.00 | 0.00 | 0.00 | 90 | 1020.1 |
| 20260506125937 | 55 | 136 | 0.0 | 2.6 | 0.00 | 0.00 | 0.00 | 90 | 1020.0 |
| 20260506125435 | 55 | 153 | 0.9 | 0.9 | 0.00 | 0.00 | 0.00 | 90 | 1019.9 |
| 20260506124933 | 55 | 133 | 0.9 | 0.9 | 0.00 | 0.00 | 0.00 | 89 | 1019.8 |
| 20260506124430 | 55 | 185 | 0.9 | 1.7 | 0.00 | 0.00 | 0.00 | 89 | 1019.6 |
| 20260506123928 | 55 | 135 | 0.9 | 1.7 | 0.00 | 0.00 | 0.00 | 89 | 1019.6 |
| 20260506123426 | 55 | 152 | 0.0 | 2.6 | 0.00 | 0.00 | 0.00 | 89 | 1019.8 |
| 20260506122923 | 55 | 148 | 0.0 | 0.9 | 0.00 | 0.00 | 0.00 | 89 | 1019.6 |
| 20260506122419 | 55 | 146 | 0.0 | 0.9 | 0.00 | 0.00 | 0.00 | 89 | 1019.7 |
| 20260506121918 | 55 | 141 | 0.0 | 0.9 | 0.00 | 0.00 | 0.00 | 89 | 1019.4 |
| 20260506121415 | 56 | 140 | 0.9 | 0.9 | 0.00 | 0.00 | 0.00 | 88 | 1019.4 |
| 20260506120912 | 56 | 136 | 0.0 | 0.9 | 0.00 | 0.00 | 0.00 | 88 | 1019.9 |
| 20260506120409 | 56 | 122 | 0.9 | 1.7 | 0.00 | 0.00 | 0.00 | 88 | 1019.4 |
| 20260506115906 | 56 | 36 | 0.9 | 2.6 | 0.00 | 0.00 | 0.00 | 87 | 1019.7 |
| 20260506115404 | 56 | 150 | 0.9 | 1.7 | 0.00 | 0.00 | 0.00 | 87 | 1019.4 |
| 20260506114902 | 56 | 144 | 0.0 | 1.7 | 0.00 | 0.00 | 0.00 | 87 | 1019.6 |
| 20260506114359 | 57 | 94 | 1.7 | 1.7 | 0.00 | 0.00 | 0.00 | 87 | 1019.6 |
| 20260506113858 | 57 | 131 | 0.0 | 2.6 | 0.00 | 0.00 | 0.00 | 87 | 1019.5 |
| 20260506113355 | 57 | 115 | 2.6 | 2.6 | 0.00 | 0.00 | 0.00 | 87 | 1019.6 |
| 20260506112851 | 57 | 142 | 0.0 | 1.7 | 0.00 | 0.00 | 0.00 | 87 | 1019.3 |
| 20260506112349 | 57 | 259 | 2.6 | 4.3 | 0.00 | 0.00 | 0.00 | 87 | 1019.2 |
| 20260506111846 | 57 | 112 | 0.9 | 1.7 | 0.00 | 0.00 | 0.00 | 87 | 1019.4 |
| 20260506111344 | 57 | 152 | 1.7 | 5.2 | 0.00 | 0.00 | 0.00 | 87 | 1019.4 |
| 20260506110842 | 57 | 152 | 0.9 | 1.7 | 0.00 | 0.00 | 0.00 | 87 | 1019.5 |
| 20260506110339 | 57 | 148 | 0.9 | 2.6 | 0.00 | 0.00 | 0.00 | 87 | 1019.3 |
| 20260506105835 | 57 | 19 | 2.6 | 2.6 | 0.00 | 0.00 | 0.00 | 87 | 1019.1 |
| 20260506105332 | 57 | 293 | 1.7 | 2.6 | 0.00 | 0.00 | 0.00 | 88 | 1019.0 |
| 20260506104830 | 57 | 160 | 1.7 | 1.7 | 0.00 | 0.00 | 0.00 | 88 | 1019.1 |
| 20260506104327 | 57 | 113 | 0.9 | 2.6 | 0.00 | 0.00 | 0.00 | 88 | 1018.8 |
| 20260506103824 | 57 | 135 | 0.0 | 2.6 | 0.00 | 0.00 | 0.00 | 88 | 1019.0 |
| 20260506103322 | 57 | 133 | 0.9 | 1.7 | 0.00 | 0.00 | 0.00 | 88 | 1018.9 |
| 20260506102819 | 57 | 31 | 2.6 | 2.6 | 0.00 | 0.00 | 0.00 | 87 | 1018.8 |
| 20260506102317 | 57 | 121 | 0.0 | 1.7 | 0.00 | 0.00 | 0.00 | 87 | 1018.8 |
| 20260506101814 | 57 | 134 | 0.9 | 1.7 | 0.00 | 0.00 | 0.00 | 87 | 1018.8 |
| 20260506101310 | 57 | 119 | 0.9 | 0.9 | 0.00 | 0.00 | 0.00 | 87 | 1018.6 |
| 20260506100808 | 57 | 144 | 0.0 | 1.7 | 0.00 | 0.00 | 0.00 | 87 | 1018.7 |
| 20260506100306 | 57 | 333 | 1.7 | 1.7 | 0.00 | 0.00 | 0.00 | 87 | 1018.6 |
| 20260506095804 | 57 | 117 | 0.0 | 0.9 | 0.00 | 0.00 | 0.00 | 87 | 1018.4 |
| 20260506095301 | 57 | 147 | 0.0 | 0.0 | 0.00 | 0.00 | 0.00 | 87 | 1018.4 |
| 20260506094757 | 57 | 154 | 0.0 | 0.0 | 0.00 | 0.00 | 0.00 | 87 | 1018.5 |
| 20260506094256 | 57 | 133 | 0.9 | 0.9 | 0.00 | 0.00 | 0.00 | 87 | 1018.4 |
| 20260506093754 | 57 | 177 | 0.9 | 1.7 | 0.00 | 0.00 | 0.00 | 87 | 1018.3 |
| 20260506093251 | 57 | 142 | 0.9 | 1.7 | 0.00 | 0.00 | 0.00 | 87 | 1018.5 |
| 20260506092749 | 57 | 139 | 1.7 | 1.7 | 0.00 | 0.00 | 0.00 | 86 | 1018.5 |
| 20260506092246 | 57 | 125 | 0.0 | 1.7 | 0.00 | 0.00 | 0.00 | 86 | 1018.3 |
| 20260506091743 | 57 | 260 | 1.7 | 1.7 | 0.00 | 0.00 | 0.00 | 86 | 1018.3 |
| 20260506091241 | 57 | 127 | 0.9 | 0.9 | 0.00 | 0.00 | 0.00 | 86 | 1018.3 |
| 20260506090739 | 57 | 111 | 0.9 | 2.6 | 0.00 | 0.00 | 0.00 | 86 | 1018.3 |
| 20260506090236 | 57 | 89 | 0.9 | 2.6 | 0.00 | 0.00 | 0.00 | 86 | 1018.2 |
| 20260506085732 | 57 | 127 | 1.7 | 1.7 | 0.00 | 0.00 | 0.00 | 86 | 1018.3 |
| 20260506085228 | 57 | 345 | 3.5 | 4.3 | 0.00 | 0.00 | 0.00 | 86 | 1018.4 |
| 20260506084726 | 57 | 153 | 1.7 | 4.3 | 0.00 | 0.00 | 0.00 | 86 | 1018.2 |
| 20260506084221 | 58 | 196 | 0.0 | 1.7 | 0.00 | 0.00 | 0.00 | 86 | 1018.3 |
| 20260506083719 | 58 | 102 | 0.9 | 2.6 | 0.00 | 0.00 | 0.00 | 85 | 1018.5 |
| 20260506083216 | 58 | 93 | 1.7 | 1.7 | 0.00 | 0.00 | 0.00 | 85 | 1018.3 |
| 20260506082714 | 58 | 165 | 0.9 | 2.6 | 0.00 | 0.00 | 0.00 | 85 | 1018.3 |
| 20260506082209 | 58 | 257 | 1.7 | 1.7 | 0.00 | 0.00 | 0.00 | 85 | 1018.3 |
| 20260506081707 | 58 | 359 | 2.6 | 4.3 | 0.00 | 0.00 | 0.00 | 85 | 1018.3 |
| 20260506081204 | 58 | 106 | 1.7 | 2.6 | 0.00 | 0.00 | 0.00 | 85 | 1018.2 |
| 20260506080702 | 58 | 113 | 0.9 | 0.9 | 0.00 | 0.00 | 0.00 | 85 | 1018.2 |
| 20260506080158 | 58 | 37 | 1.7 | 1.7 | 0.00 | 0.00 | 0.00 | 85 | 1018.2 |
| 20260506073143 | 59 | 138 | 0.9 | 0.9 | 0.00 | 0.00 | 0.00 | 87 | 1017.8 |
| 20260506072639 | 59 | 146 | 0.0 | 0.9 | 0.00 | 0.00 | 0.00 | 87 | 1017.9 |
| 20260506072137 | 59 | 123 | 0.9 | 0.9 | 0.00 | 0.00 | 0.00 | 86 | 1017.9 |
| 20260506071634 | 59 | 147 | 0.0 | 1.7 | 0.00 | 0.00 | 0.00 | 86 | 1018.0 |
| 20260506071132 | 59 | 158 | 0.9 | 0.9 | 0.00 | 0.00 | 0.00 | 86 | 1017.8 |
| 20260506070628 | 59 | 129 | 0.0 | 0.0 | 0.00 | 0.00 | 0.00 | 87 | 1017.8 |
| 20260506070126 | 60 | 146 | 0.0 | 0.0 | 0.00 | 0.00 | 0.00 | 86 | 1017.6 |
| 20260506062103 | 60 | 46 | 0.9 | 0.9 | 0.00 | 0.00 | 0.00 | 85 | 1017.4 |
| 20260506061558 | 60 | 301 | 0.9 | 1.7 | 0.00 | 0.00 | 0.00 | 84 | 1017.4 |
| 20260506061056 | 60 | 145 | 0.9 | 1.7 | 0.00 | 0.00 | 0.00 | 83 | 1017.5 |
| 20260506060555 | 60 | 139 | 0.0 | 0.9 | 0.00 | 0.00 | 0.00 | 83 | 1017.6 |